Hourly Data Report for September 02, 2017

All times are specified in Local Standard Time (LST). Add 1 hour to adjust for Daylight Saving Time where and when it is observed.

FREDERICTON
NEW BRUNSWICK

45°52'08.000" N
66°32'14.000" W
20.70 m
8101505
71700
YFC

Download Data

Hourly Data (September 2017)
Hourly Data Report for September 2, 2017
Temp Definition
°C
Dew Point Temp Definition
°C
Rel Hum Definition
%
Wind Dir Definition
10's deg

Wind Spd Definition
km/h
Visibility Definition
km
Stn Press Definition
kPa
Hmdx Definition


Wind Chill Definition


Weather Definition


TIME
00:00 Legend Double Dagger 10.4 6.2 75 28 17 16.1 101.18     LegendNANA
01:00 Legend Double Dagger 10.1 5.9 75 29 17 16.1 101.21     LegendNANA
02:00 Legend Double Dagger 9.1 5.3 77 28 13 16.1 101.24     LegendNANA
03:00 Legend Double Dagger 8.8 5.4 79 27 9 16.1 101.27     LegendNANA
04:00 Legend Double Dagger 8.2 5.5 83 28 11 16.1 101.30     LegendNANA
05:00 Legend Double Dagger 8.6 5.7 82 29 13 16.1 101.38     LegendNANA
06:00 Legend Double Dagger 9.0 5.5 79 28 11 16.1 101.46     LegendNANA
07:00 Legend Double Dagger 9.8 5.2 73 30 18 16.1 101.53     LegendNANA
08:00 Legend Double Dagger 11.0 5.3 68 30 17 16.1 101.60     LegendNANA
09:00 Legend Double Dagger 11.8 5.7 66 32 22 16.1 101.65     LegendNANA
10:00 Legend Double Dagger 14.2 6.3 59 33 26 16.1 101.67     LegendNANA
11:00 Legend Double Dagger 15.6 6.4 54 30 18 16.1 101.66     LegendNANA
12:00 Legend Double Dagger 17.1 6.1 48 28 13 16.1 101.63     LegendNANA
13:00 Legend Double Dagger 18.3 7.0 47 28 9 16.1 101.62     LegendNANA
14:00 Legend Double Dagger 19.8 6.5 42 32 17 16.1 101.60     LegendNANA
15:00 Legend Double Dagger 20.6 6.6 40 29 15 16.1 101.61     LegendNANA
16:00 Legend Double Dagger 20.9 6.7 39 32 11 16.1 101.63     LegendNANA
17:00 Legend Double Dagger 20.8 6.8 40 31 11 16.1 101.67     LegendNANA
18:00 Legend Double Dagger 19.8 8.0 46 28 9 16.1 101.71     LegendNANA
19:00 Legend Double Dagger 17.5 8.5 55 28 8 16.1 101.80     LegendNANA
20:00 Legend Double Dagger 15.7 8.3 61 28 8 16.1 101.88     LegendNANA
21:00 Legend Double Dagger 11.5 8.5 81 29 4 16.1 101.95     LegendNANA
22:00 Legend Double Dagger 10.5 8.2 85   0 16.1 101.98     LegendNANA
23:00 Legend Double Dagger 8.4 7.2 92 22 5 16.1 101.99     LegendNANA

Notes on Data Quality.

Legend

  • E = Estimated
  • M = Missing
  • NA = Not Available
  • ‡ = Partner data that is not subject to review by the National Climate Archives
Date modified: